Regional Weather Roundup
Issued by NWS

Home | Current Version | Previous Version | Graphics & Text | Print | Product List | Glossary On
Versions: 1 2 3 4 5 6 7 8 9 10 11 12 13 14 15 16 17 18 19 20 21 22 23 24 25 26 27 28 29 30 31 32 33 34 35 36 37 38 39 40 41 42 43 44 45 46 47 48 49 50
000
ASUS43 KDTX 221810
RWRMI
MICHIGAN HOURLY REGIONAL WEATHER ROUNDUP
NATIONAL WEATHER SERVICE DETROIT/PONTIAC MI
200 PM EDT TUE APR 22 2014

NOTE: "FAIR" INDICATES FEW OR NO CLOUDS BELOW 12,000 FEET WITH NO
SIGNIFICANT WEATHER AND/OR OBSTRUCTION TO VISIBILITY.

MIZ047>049-052>055-059>063-066>070-074>076-081>083-221900-
SOUTHEAST LOWER MICHIGAN

CITY           SKY/WX    TMP DP  RH WIND       PRES   REMARKS
ADRIAN         MOSUNNY   55  34  45 NW14G25   29.80S
6HR MIN TEMP:  50; 6HR MAX TEMP:  55;

ALMA           CLOUDY    47  32  56 NW23G29   29.84S
ANN ARBOR      PTSUNNY   53  32  44 NW18G28   29.79S
BAD AXE        CLOUDY    43  34  70 W17G28    29.75S
6HR MIN TEMP:  39; 6HR MAX TEMP:  44;

DETROIT CITY   SUNNY     55  32  41 NW14G25   29.76S
6HR MIN TEMP:  51; 6HR MAX TEMP:  59;

DETROIT        MOSUNNY   56  34  43 NW23G30   29.77S
6HR MIN TEMP:  50; 6HR MAX TEMP:  57; 6HR PCP: TRACE;

FLINT          CLOUDY    50  34  54 NW21G28   29.80S
6HR MIN TEMP:  44; 6HR MAX TEMP:  50;

GROSSE ILE     SUNNY     55  34  44 NW21G26   29.75S
HILLSDALE      PTSUNNY   52  32  47 NW18G26   29.82S
HOWELL         CLOUDY    47  33  57 W16G26    29.80S
6HR MIN TEMP:  42; 6HR MAX TEMP:  48;


CITY           SKY/WX    TMP DP  RH WIND       PRES   REMARKS
JACKSON        CLOUDY    51  33  50 NW17G25   29.81S
6HR MIN TEMP:  44; 6HR MAX TEMP:  51;

LAMBERTVILLE   SUNNY     59  34  38 NW14G23   29.78S
LANSING        PTSUNNY   49  32  52 NW18G30   29.83S
6HR MIN TEMP:  42; 6HR MAX TEMP:  50;

LAPEER         NOT AVBL
MASON          CLOUDY    48  33  55 NW15G23   29.82S
MONROE         SUNNY     55  36  47 NW20G29   29.76S
MT. CLEMENS    MOSUNNY   52  34  50 NW20      29.73F
6HR MIN TEMP:  47; 6HR MAX TEMP:  53;

PONTIAC        PTSUNNY   49  33  54 NW21G28   29.76F
6HR MIN TEMP:  43; 6HR MAX TEMP:  49;

PORT HOPE        N/A     44  35  70 NW9G23    29.72S
6HR MIN TEMP:  40; 6HR MAX TEMP:  45; 6HR PCP:  0.01;

PORT HURON     CLOUDY    46  36  66 NW17G25   29.75S
TRI CITIES     CLOUDY    48  34  58 W18G31    29.80R
6HR MIN TEMP:  41; 6HR MAX TEMP:  50;

YPSILANTI      PTSUNNY   57  34  41 NW22G29   29.78S
6HR MIN TEMP:  51; 6HR MAX TEMP:  59;

$$
MIZ043>046-050>051-056>058-064>065-071>073-077>080-221900-
SOUTHWEST LOWER MICHIGAN

CITY           SKY/WX    TMP DP  RH WIND       PRES   REMARKS
BATTLE CREEK   PTSUNNY   51  33  50 NW17G30   29.86S
6HR MIN TEMP:  43; 6HR MAX TEMP:  52;

BENTON HARBOR  SUNNY     43  33  68 NW15G25   29.96F
6HR MIN TEMP:  39; 6HR MAX TEMP:  43;

BIG RAPIDS     CLOUDY    40  30  67 N16G28    29.88R
6HR MIN TEMP:  39; 6HR MAX TEMP:  41;

COLDWATER      MOSUNNY   51  34  51 NW15G25   29.84F
6HR MIN TEMP:  44; 6HR MAX TEMP:  52;

HOLLAND        SUNNY     48  33  56 NW17G25   29.93S
6HR MIN TEMP:  42; 6HR MAX TEMP:  48;

GRAND RAPIDS   PTSUNNY   50  33  52 NW18G30   29.88S
6HR MIN TEMP:  43; 6HR MAX TEMP:  50;

KALAMAZOO      MOSUNNY   51  32  48 NW18G28   29.88F
6HR MIN TEMP:  43; 6HR MAX TEMP:  52;

MARSHALL       PTSUNNY   51  33  49 NW8G23    29.83F
MUSKEGON       PTSUNNY   47  30  51 NW21G29   29.93S
6HR MIN TEMP:  42; 6HR MAX TEMP:  48;

$$
MIZ016>042-221900-
NORTHERN LOWER MICHIGAN

CITY           SKY/WX    TMP DP  RH WIND       PRES   REMARKS
ALPENA         CLOUDY    40  34  79 NW13G24   29.75R
6HR MIN TEMP:  37; 6HR MAX TEMP:  43;

BEAVER ISLAND  CLOUDY    36  31  81 NW14G26   29.88R
6HR MIN TEMP:  34; 6HR MAX TEMP:  36;

BELLAIRE       CLOUDY    36  31  82 NW9G22    29.88S
6HR MIN TEMP:  35; 6HR MAX TEMP:  37;

CADILLAC       LGT SNOW  35  33  92 NW16      29.86S
CHARLEVOIX     CLOUDY    36  32  88 NW12      29.91R
6HR MIN TEMP:  35; 6HR MAX TEMP:  36;

FRANKFORT      CLOUDY    40  31  71 N9G20     29.93S
GAYLORD        LGT SNOW  32  31  96 NW12G22   29.80S FOG
6HR MIN TEMP:  32; 6HR MAX TEMP:  33; 6HR PCP: TRACE;

GRAYLING       LGT SNOW  35  34  97 W20G26    29.82F
6HR MIN TEMP:  33; 6HR MAX TEMP:  35;

HARBOR SPRINGS CLOUDY    38  32  79 W12G17    29.84R
HOUGHTON LAKE  CLOUDY    36  31  82 NW17G29   29.83R
6HR MIN TEMP:  36; 6HR MAX TEMP:  39;

MANISTEE       CLOUDY    43  30  61 N16G23    29.94S
OSCODA         CLOUDY    46  35  66 W22G28    29.73R
PELLSTON       CLOUDY    38  31  76 NW18G26   29.83R
6HR MIN TEMP:  35; 6HR MAX TEMP:  38;

TRAVERSE CITY  CLOUDY    38  29  70 NW16G28   29.90R
6HR MIN TEMP:  37; 6HR MAX TEMP:  39;

$$
MIZ007>008-015-221900-
EASTERN UPPER MICHIGAN

CITY           SKY/WX    TMP DP  RH WIND       PRES   REMARKS
KINROSS        CLOUDY    39  32  75 NW28G36   29.76R
6HR MIN TEMP:  36; 6HR MAX TEMP:  41;

MACKINAC ISLAN CLOUDY    39  32  75 NW16G24   29.79R
6HR MIN TEMP:  33; 6HR MAX TEMP:  41; 6HR PCP:  0.03;

NEWBERRY       LGT SNOW  33  30  89 NW16G23   29.87R
6HR MIN TEMP:  33; 6HR MAX TEMP:  34;

S. S. MARIE    CLOUDY    40  31  70 NW16G25   29.77R
6HR MIN TEMP:  35; 6HR MAX TEMP:  42;

$$
MIZ004>006-011>014-085-221900-
CENTRAL UPPER MICHIGAN

CITY           SKY/WX    TMP DP  RH WIND       PRES   REMARKS
MANISTIQUE     CLOUDY    38  30  74 NW20G30   29.91R
6HR MIN TEMP:  34; 6HR MAX TEMP:  39;

ESCANABA       CLOUDY    43  27  52 NW16G25   29.94R
6HR MIN TEMP:  37; 6HR MAX TEMP:  45;

MENOMINEE      CLOUDY    45  25  45 NW15G31   29.95R
6HR MIN TEMP:  39; 6HR MAX TEMP:  46;

SAWYER-GWINN   CLOUDY    37  27  65 N18       29.96R
$$
MIZ001>003-009>011-084-221900-
WESTERN UPPER MICHIGAN

CITY           SKY/WX    TMP DP  RH WIND       PRES   REMARKS
IRON MOUNTAIN  CLOUDY    41  24  51 NW16G28   29.97R
6HR MIN TEMP:  37; 6HR MAX TEMP:  42;

HOUGHTON       FLURRIES  35  27  72 N16G24    30.01S
6HR MIN TEMP:  33; 6HR MAX TEMP:  36; 6HR PCP: TRACE;

COPPER HARBOR    N/A     35  28  75 N16       30.01R
6HR MIN TEMP:  34; 6HR MAX TEMP:  35;

IRONWOOD       CLOUDY    39  27  60 NW13G18   30.04S
6HR MIN TEMP:  36; 6HR MAX TEMP:  39;

$$

ABBREVIATIONS USED IN REMARKS
   TC - TEMPERATURE IN CELSIUS
  WCI - WIND CHILL INDEX
   HX - HEAT INDEX
  VSB - VISIBILITY




USA.gov is the U.S. government's official web portal to all federal, state and local government web resources and services.